Preview of NWS' New Version of Forecast
This preview is not operational and should not be used for support decisions.

Regional Weather Roundup (RWR)

Issued by National Weather Service (NWS)

                            
000
ASUS44 KMEG 230400
RWRTN 
TENNESSEE HOURLY STATE WEATHER ROUNDUP
NATIONAL WEATHER SERVICE MEMPHIS TN
1000 PM CST FRI FEB 22 2019

TNZ002-004-019-021-049-052-054-088>092-230500-
WEST TENNESSEE
  
CITY           SKY/WX    TMP DP  RH WIND       PRES   REMARKS
MEMPHIS INTL   RAIN      57  56  96 E9        30.04F FOG              
NWS MEMPHIS      N/A     55 N/A N/A MISG        N/A                   
JACKSON        LGT RAIN  53  52  96 S7        30.09R                  
DYERSBURG      LGT RAIN  47  47 100 NE6       30.10S FOG              
$$

TNZ008-025-027-028-033-062-065-066-230500-
NORTH MIDDLE TENNESSEE
  
CITY           SKY/WX    TMP DP  RH WIND       PRES   REMARKS
NASHVILLE      LGT RAIN  50  47  89 SE7       30.13F                  
CLARKSVILLE    CLOUDY    45  43  93 N8        30.13F                  
SMYRNA         LGT RAIN  49  48  97 SE6       30.14F                  
CROSSVILLE     CLOUDY    49  48  97 E3        30.21F                  
$$

TNZ061-075-076-078-094-096-097-230500-
SOUTH MIDDLE TENNESSEE
  
CITY           SKY/WX    TMP DP  RH WIND       PRES   REMARKS
$$

TNZ017-018-042-046-047-230500-
NORTHEAST TENNESSEE
  
CITY           SKY/WX    TMP DP  RH WIND       PRES   REMARKS
TRI CITIES     CLOUDY    49  49 100 NE3       30.25F                  
$$

TNZ012-013-036-069-073-074-230500-
CENTRAL EAST TENNESSEE
  
CITY           SKY/WX    TMP DP  RH WIND       PRES   REMARKS
KNOXVILLE      CLOUDY    51  49  92 N5        30.20F                  
OAK RIDGE      CLOUDY    51  51 100 CALM      30.23S                  
$$

TNZ083-085-099-230500-
SOUTHEAST TENNESSEE
  
CITY           SKY/WX    TMP DP  RH WIND       PRES   REMARKS
CHATTANOOGA    DRIZZLE   51  50  96 NE5       30.21F FOG              
$$

SKY/WX REPORTED AS FAIR MEANS FEW OR NO CLOUDS BELOW
12 THOUSAND FEET.